Location: ??????????
(54.8537°N, 38.8755°E)
Time: 23:12:47
(UTC+00:00)

Transit 2A Rocket - Pass Details

Date: 20 September 2024
Orbit: 582 x 908 km, 66.7° (Epoch: 09 October)

Event Time Altitude Azimuth Distance (km) Brightness Sun altitude
Exits shadow 20:58:40 46° 26° (NNE) 1,211 6.2 -34.4°
Drops below altitude 10° 21:02:53 10° 41° (NE) 2,582 8.2 -34.4°
Sets 21:05:23 0° 44° (NE) 3,503 8.9 -34.5°
